Creston, IA

3:20 AM CDT on July 26, 2017 (GMT -0500)
Creston Municipal

Weather History for KCSQ - January, 2013

Change the Weather History Date:

Sunday, January 20, 2013

  Actual Average Record
Temperature  
Mean Temperature 12 °F -  
Max Temperature 17 °F 30 °F 55 °F (1986)
Min Temperature 8 °F 13 °F -23 °F (1985)
Degree Days  
Heating Degree Days 52    
Moisture  
Dew Point 5 °F    
Average Humidity 67    
Maximum Humidity 85    
Minimum Humidity 49    
Precipitation  
Precipitation 0.00 in - - ()
Sea Level Pressure  
Sea Level Pressure 30.33 in    
Wind  
Wind Speed 10 mph (NNW)    
Max Wind Speed 17 mph    
Max Gust Speed 25 mph    
Visibility 10 miles    
Events Snow    
Averages and records for this station are not official NWS values.
T = Trace of Precipitation, MM = Missing Value Source: NWS Daily Summary

Daily Weather History Graph

Daily Weather History Graph

Search for Another Location

Airport or City:

Trip Planner

Search our weather history database for the weather conditions in past years. The results will help you decide how hot, cold, wet, or windy it might be!

Date:

Astronomy

Jan. 20, 2013 Rise Set
Actual Time 7:37 AM CST 5:20 PM CST
Civil Twilight 7:07 AM CST 5:50 PM CST
Nautical Twilight 6:33 AM CST 6:23 PM CST
Astronomical Twilight 6:01 AM CST 6:56 PM CST
Moon 12:21 PM CST (1/20) 2:10 AM CST (1/20)
Length of Visible Light 10h 42m
Length of Day
9h 42m
Waxing Gibbous, 66% of the Moon is Illuminated
Jan 20
Waxing Gibbous
Jan 26
Full
Feb 3
Last Quarter
Feb 10
New
Feb 17
First Quarter

Hourly Weather History & Observations

Time (CST) Temp. Windchill Dew Point Humidity Pressure Visibility Wind Dir Wind Speed Gust Speed Precip Events Conditions
12:15 AM 17.6 °F 4.3 °F 8.6 °F 68% 30.28 in 10.0 mi NW 12.7 mph - N/A   Clear
12:35 AM 17.6 °F 3.2 °F 6.8 °F 63% 30.28 in 10.0 mi NNW 15.0 mph - N/A   Clear
12:55 AM 17.6 °F 3.2 °F 6.8 °F 63% 30.29 in 10.0 mi NNW 15.0 mph 18.4 mph N/A   Clear
1:15 AM 15.8 °F 4.2 °F 6.8 °F 68% 30.31 in 10.0 mi NW 9.2 mph 18.4 mph N/A   Clear
1:35 AM 15.8 °F 2.7 °F 6.8 °F 68% 30.32 in 10.0 mi NW 11.5 mph 16.1 mph N/A   Clear
1:55 AM 15.8 °F 4.2 °F 6.8 °F 68% 30.32 in 10.0 mi NW 9.2 mph - N/A   Clear
2:15 AM 15.8 °F 2.1 °F 5.0 °F 62% 30.32 in 10.0 mi NW 12.7 mph - N/A   Clear
2:35 AM 15.8 °F 0.9 °F 3.2 °F 58% 30.31 in 10.0 mi NNW 15.0 mph - N/A   Clear
2:55 AM 15.8 °F 2.1 °F 1.4 °F 53% 30.32 in 10.0 mi North 12.7 mph 20.7 mph N/A   Clear
3:15 AM 14.0 °F -0.2 °F 1.4 °F 57% 30.31 in 10.0 mi North 12.7 mph - N/A   Clear
3:35 AM 14.0 °F 0.5 °F 3.2 °F 62% 30.30 in 10.0 mi North 11.5 mph - N/A   Clear
3:55 AM 14.0 °F 1.2 °F 3.2 °F 62% 30.29 in 10.0 mi North 10.4 mph - N/A   Clear
4:15 AM 14.0 °F 1.2 °F 3.2 °F 62% 30.29 in 10.0 mi North 10.4 mph - N/A   Clear
4:35 AM 12.2 °F -0.2 °F 3.2 °F 67% 30.29 in 10.0 mi North 9.2 mph - N/A   Clear
4:55 AM 12.2 °F 1.7 °F 3.2 °F 67% 30.29 in 10.0 mi North 6.9 mph - N/A   Clear
5:15 AM 12.2 °F 1.7 °F 3.2 °F 67% 30.29 in 10.0 mi NNW 6.9 mph - N/A   Clear
5:35 AM 12.2 °F 1.7 °F 3.2 °F 67% 30.30 in 10.0 mi NNW 6.9 mph - N/A   Clear
6:15 AM 12.2 °F -0.2 °F 3.2 °F 67% 30.30 in 10.0 mi North 9.2 mph - N/A   Clear
6:35 AM 12.2 °F 4.3 °F 3.2 °F 67% 30.30 in 10.0 mi North 4.6 mph - N/A   Clear
6:55 AM 12.2 °F 4.3 °F 3.2 °F 67% 30.31 in 10.0 mi North 4.6 mph - N/A   Clear
7:15 AM 12.2 °F 2.9 °F 3.2 °F 67% 30.33 in 10.0 mi North 5.8 mph - N/A   Clear
7:35 AM 12.2 °F 4.3 °F 3.2 °F 67% 30.32 in 10.0 mi North 4.6 mph - N/A   Mostly Cloudy
7:55 AM 12.2 °F 6.1 °F 3.2 °F 67% 30.33 in 10.0 mi NNW 3.5 mph - N/A   Overcast
8:15 AM 12.2 °F 2.9 °F 3.2 °F 67% 30.33 in 10.0 mi NNW 5.8 mph - N/A   Mostly Cloudy
8:35 AM 12.2 °F 2.9 °F 3.2 °F 67% 30.33 in 10.0 mi North 5.8 mph - N/A   Scattered Clouds
8:55 AM 12.2 °F 2.9 °F 3.2 °F 67% 30.33 in 10.0 mi North 5.8 mph - N/A   Clear
9:15 AM 14.0 °F 3.9 °F 3.2 °F 62% 30.34 in 10.0 mi North 6.9 mph - N/A   Clear
9:35 AM 14.0 °F 2.0 °F 3.2 °F 62% 30.35 in 10.0 mi North 9.2 mph - N/A   Clear
9:55 AM 15.8 °F 3.4 °F 3.2 °F 58% 30.36 in 10.0 mi North 10.4 mph - N/A   Clear
10:15 AM 17.6 °F 6.4 °F 3.2 °F 53% 30.36 in 10.0 mi North 9.2 mph - N/A   Clear
10:35 AM 15.8 °F 5.1 °F 3.2 °F 58% 30.37 in 10.0 mi NNE 8.1 mph - N/A   Scattered Clouds
10:55 AM 17.6 °F 7.3 °F 3.2 °F 53% 30.36 in 10.0 mi NNE 8.1 mph - N/A   Overcast
11:15 AM 17.6 °F 6.4 °F 1.4 °F 49% 30.36 in 10.0 mi North 9.2 mph - N/A   Overcast
11:35 AM 17.6 °F 7.3 °F 1.4 °F 49% 30.36 in 10.0 mi NE 8.1 mph - N/A   Overcast
11:55 AM 17.6 °F 7.3 °F 1.4 °F 49% 30.35 in 10.0 mi North 8.1 mph - N/A   Overcast
12:15 PM 17.6 °F 9.3 °F 1.4 °F 49% 30.35 in 10.0 mi North 5.8 mph - N/A   Overcast
12:55 PM 17.6 °F 5.7 °F 1.4 °F 49% 30.35 in 10.0 mi NNW 10.4 mph - N/A   Overcast
1:15 PM 17.6 °F 8.2 °F 3.2 °F 53% 30.34 in 10.0 mi North 6.9 mph - N/A   Overcast
1:35 PM 17.6 °F 7.3 °F 3.2 °F 53% 30.34 in 10.0 mi North 8.1 mph - N/A   Overcast
1:55 PM 17.6 °F 7.3 °F 5.0 °F 58% 30.34 in 10.0 mi North 8.1 mph - N/A   Overcast
2:15 PM 17.6 °F 8.2 °F 6.8 °F 63% 30.34 in 10.0 mi NNW 6.9 mph - N/A   Overcast
2:35 PM 17.6 °F 9.3 °F 6.8 °F 63% 30.34 in 10.0 mi NNW 5.8 mph - N/A   Overcast
2:55 PM 17.6 °F 7.3 °F 8.6 °F 68% 30.35 in 7.0 mi NNW 8.1 mph - N/A   Overcast
3:15 PM 17.6 °F 5.7 °F 8.6 °F 68% 30.34 in 10.0 mi NNW 10.4 mph - N/A   Overcast
3:35 PM 17.6 °F 5.7 °F 8.6 °F 68% 30.34 in 4.0 mi NW 10.4 mph - N/A Snow Light Snow
3:55 PM 17.6 °F 7.3 °F 8.6 °F 68% 30.34 in 10.0 mi NNW 8.1 mph - N/A Snow Light Snow
4:15 PM 17.6 °F 6.4 °F 8.6 °F 68% 30.35 in 10.0 mi NNW 9.2 mph - N/A   Overcast
4:35 PM 17.6 °F 5.0 °F 10.4 °F 73% 30.35 in 5.0 mi NNW 11.5 mph - N/A Snow Light Snow
4:55 PM 15.8 °F 4.2 °F 8.6 °F 73% 30.35 in 10.0 mi NNW 9.2 mph - N/A Snow Light Snow
5:15 PM 15.8 °F 3.4 °F 8.6 °F 73% 30.35 in 10.0 mi NW 10.4 mph - N/A Snow Light Snow
5:35 PM 15.8 °F 5.1 °F 8.6 °F 73% 30.35 in 10.0 mi NNW 8.1 mph - N/A Snow Light Snow
5:55 PM 15.8 °F 3.4 °F 8.6 °F 73% 30.35 in 10.0 mi NW 10.4 mph - N/A   Overcast
6:15 PM 14.0 °F 2.9 °F 6.8 °F 73% 30.35 in 10.0 mi NW 8.1 mph - N/A   Overcast
6:55 PM 12.2 °F 1.7 °F 6.8 °F 79% 30.37 in 10.0 mi NW 6.9 mph - N/A   Clear
7:15 PM 12.2 °F 1.7 °F 6.8 °F 79% 30.36 in 10.0 mi NW 6.9 mph - N/A   Clear
7:35 PM 10.4 °F -1.5 °F 6.8 °F 85% 30.36 in 10.0 mi NW 8.1 mph - N/A   Clear
7:55 PM 10.4 °F -0.4 °F 6.8 °F 85% 30.36 in 10.0 mi NW 6.9 mph - N/A   Clear
8:15 PM 8.6 °F 0.1 °F 3.2 °F 79% 30.34 in 10.0 mi West 4.6 mph - N/A   Clear
8:35 PM 8.6 °F -2.6 °F 3.2 °F 79% 30.34 in 10.0 mi West 6.9 mph - N/A   Clear
8:55 PM 10.4 °F -2.4 °F 5.0 °F 79% 30.35 in 10.0 mi WNW 9.2 mph - N/A   Scattered Clouds
9:15 PM 10.4 °F -4.1 °F 6.8 °F 85% 30.35 in 10.0 mi WNW 11.5 mph - N/A   Scattered Clouds
9:35 PM 10.4 °F -6.0 °F 6.8 °F 85% 30.35 in 10.0 mi NW 15.0 mph 18.4 mph N/A Snow Light Snow
9:55 PM 12.2 °F -4.8 °F 6.8 °F 79% 30.36 in 10.0 mi NW 17.3 mph 25.3 mph N/A Snow Light Snow
10:15 PM 10.4 °F -4.1 °F 5.0 °F 79% 30.36 in 10.0 mi WNW 11.5 mph - N/A   Scattered Clouds
10:35 PM 10.4 °F -4.1 °F 3.2 °F 73% 30.36 in 10.0 mi NW 11.5 mph 21.9 mph N/A   Scattered Clouds
10:55 PM 10.4 °F -4.1 °F 3.2 °F 73% 30.35 in 10.0 mi WNW 11.5 mph - N/A   Overcast
11:15 PM 12.2 °F -1.0 °F 3.2 °F 67% 30.36 in 10.0 mi NW 10.4 mph 17.3 mph N/A   Overcast
11:35 PM 12.2 °F -1.8 °F 3.2 °F 67% 30.35 in 10.0 mi WNW 11.5 mph - N/A   Overcast
11:55 PM 12.2 °F -2.5 °F 5.0 °F 73% 30.35 in 10.0 mi West 12.7 mph - N/A   Overcast